Weather Data

Pearl Creek Farm: 8878 N Farm Road 75, Walnut Grove MO 65770

<== Previous Day (Monday 31 Aug 2015) | Next Day (Wednesday 02 Sep 2015) ==>

Summary Precipitation Data For Tuesday 01 September 2015

ElementValueUnits
Precipitation0"
Notes(none)
SourcePearl Creek Farm

Summary Temperature Data For Tuesday 01 September 2015

ElementValueUnits
High Temperature88 oF
Low Temperature69 oF
Average Temperature77 oF
High Humidity92 %
Low Humidity64 %
Average Humidity82 %
SourcePearl Creek Farm

Detail Temperature Data For Tuesday 01 September 2015

Date / TimeTemp (F)RH (%)Dew Pt (F)Report Date / TimeSource
2015-09-01 00:00:00 72 87 67.9 2015-09-07 20:25:01 Pearl Creek Farm
2015-09-01 00:30:00 72 87 67.9 2015-09-07 20:25:01 Pearl Creek Farm
2015-09-01 01:00:00 71 88 67.3 2015-09-07 20:25:01 Pearl Creek Farm
2015-09-01 01:30:00 71 90 67.8 2015-09-07 20:25:01 Pearl Creek Farm
2015-09-01 02:00:00 71 89 67.6 2015-09-07 20:25:01 Pearl Creek Farm
2015-09-01 02:30:00 71 90 67.8 2015-09-07 20:25:01 Pearl Creek Farm
2015-09-01 03:00:00 71 90 67.9 2015-09-07 20:25:01 Pearl Creek Farm
2015-09-01 03:30:00 71 91 68.1 2015-09-07 20:25:01 Pearl Creek Farm
2015-09-01 04:00:00 71 91 68.2 2015-09-07 20:25:01 Pearl Creek Farm
2015-09-01 04:30:00 71 91 68.2 2015-09-07 20:25:01 Pearl Creek Farm
2015-09-01 05:00:00 70 91 67.3 2015-09-07 20:25:01 Pearl Creek Farm
2015-09-01 05:30:00 70 91 67.3 2015-09-07 20:25:01 Pearl Creek Farm
2015-09-01 06:00:00 70 91 67.3 2015-09-07 20:25:01 Pearl Creek Farm
2015-09-01 06:30:00 69 91 66.3 2015-09-07 20:25:01 Pearl Creek Farm
2015-09-01 07:00:00 69 91 66.3 2015-09-07 20:25:01 Pearl Creek Farm
2015-09-01 07:30:00 69 92 66.4 2015-09-07 20:25:01 Pearl Creek Farm
2015-09-01 08:00:00 70 92 67.6 2015-09-07 20:25:01 Pearl Creek Farm
2015-09-01 08:30:00 71 91 68.2 2015-09-07 20:25:01 Pearl Creek Farm
2015-09-01 09:00:00 73 90 69.9 2015-09-07 20:25:01 Pearl Creek Farm
2015-09-01 09:30:00 75 87 70.9 2015-09-07 20:25:01 Pearl Creek Farm
2015-09-01 10:00:00 77 86 72.3 2015-09-07 20:25:01 Pearl Creek Farm
2015-09-01 10:30:00 79 82 73.0 2015-09-07 20:25:01 Pearl Creek Farm
2015-09-01 11:00:00 80 80 73.3 2015-09-07 20:25:01 Pearl Creek Farm
2015-09-01 11:30:00 82 77 74.1 2015-09-07 20:25:01 Pearl Creek Farm
2015-09-01 12:00:00 83 74 73.6 2015-09-07 20:25:01 Pearl Creek Farm
2015-09-01 12:30:00 84 73 74.2 2015-09-07 20:25:01 Pearl Creek Farm
2015-09-01 13:00:00 86 68 74.0 2015-09-07 20:25:01 Pearl Creek Farm
2015-09-01 13:30:00 87 69 75.4 2015-09-07 20:25:01 Pearl Creek Farm
2015-09-01 14:00:00 87 66 74.3 2015-09-07 20:25:01 Pearl Creek Farm
2015-09-01 14:30:00 87 65 73.8 2015-09-07 20:25:01 Pearl Creek Farm
2015-09-01 15:00:00 88 64 74.3 2015-09-07 20:25:01 Pearl Creek Farm
2015-09-01 15:30:00 88 66 75.2 2015-09-07 20:25:01 Pearl Creek Farm
2015-09-01 16:00:00 88 65 74.7 2015-09-07 20:25:01 Pearl Creek Farm
2015-09-01 16:30:00 87 68 74.9 2015-09-07 20:25:01 Pearl Creek Farm
2015-09-01 17:00:00 87 66 74.3 2015-09-07 20:25:01 Pearl Creek Farm
2015-09-01 17:30:00 85 74 75.6 2015-09-07 20:25:01 Pearl Creek Farm
2015-09-01 18:00:00 85 75 76.0 2015-09-07 20:25:01 Pearl Creek Farm
2015-09-01 18:30:00 83 76 74.6 2015-09-07 20:25:01 Pearl Creek Farm
2015-09-01 19:00:00 83 78 75.2 2015-09-07 20:25:01 Pearl Creek Farm
2015-09-01 19:30:00 81 79 73.9 2015-09-07 20:25:01 Pearl Creek Farm
2015-09-01 20:00:00 79 81 72.7 2015-09-07 20:25:01 Pearl Creek Farm
2015-09-01 20:30:00 77 83 71.3 2015-09-07 20:25:01 Pearl Creek Farm
2015-09-01 21:00:00 76 84 70.8 2015-09-07 20:25:01 Pearl Creek Farm
2015-09-01 21:30:00 75 86 70.4 2015-09-07 20:25:01 Pearl Creek Farm
2015-09-01 22:00:00 75 87 70.7 2015-09-07 20:25:01 Pearl Creek Farm
2015-09-01 22:30:00 74 87 69.7 2015-09-07 20:25:01 Pearl Creek Farm
2015-09-01 23:00:00 73 88 69.1 2015-09-07 20:25:01 Pearl Creek Farm
2015-09-01 23:30:00 72 88 68.2 2015-09-07 20:25:01 Pearl Creek Farm

A total of 48 rows are displayed.